Temperature
21 21 22 22 21 21 21 21 21 21 21 20 20 20 19 19 18 18 17 17 17 16 16 16 16 17 17 17 17 17 17 17 17 17 17 17 17 18 18 18 18 18 18
21 21 21 21 22 22 22 22 22 21 21 20 20 19 19 18 18 17 17 16 16 16 16 16 16 16 16 16 16 16 16 16 17 16 16 16 17 18 18 18 18 18 18
22 22 22 22 22 22 22 22 22 21 20 20 19 19 18 18 17 17 16 16 16 16 16 16 16 16 16 16 16 16 16 16 16 16 16 16 16 17 17 17 17 17 17
22 22 23 23 23 23 22 22 21 21 20 20 19 19 18 17 17 16 16 16 15 15 16 16 16 16 16 16 16 15 15 15 15 15 15 15 15 15 16 16 16 16 16
22 22 23 23 23 22 22 21 21 20 20 20 19 18 18 17 16 16 15 15 15 15 15 15 15 15 15 15 15 15 15 15 15 15 15 15 15 15 15 15 16 16 16
22 22 23 22 22 22 22 21 21 20 20 19 19 18 17 16 16 15 15 15 15 15 15 15 14 14 14 14 14 14 14 14 14 14 14 14 14 14 15 15 15 15 15
21 22 22 22 22 22 22 21 21 20 20 19 19 18 17 16 15 15 15 14 14 14 14 14 14 14 14 14 14 14 14 14 14 14 14 14 14 14 14 14 14 14 14
20 21 21 21 21 22 22 21 21 20 20 19 19 18 17 16 15 14 14 14 14 14 13 13 13 13 13 13 13 13 14 14 14 14 14 13 13 14 14 14 14 14 13
18 19 20 20 21 21 21 21 21 20 20 19 18 17 16 16 15 14 14 14 13 13 13 13 12 12 13 13 13 13 13 13 13 13 13 13 13 13 13 13 13 14 13
16 17 18 18 19 19 20 20 20 19 19 18 18 17 16 15 15 14 14 14 13 13 13 13 12 12 12 13 13 13 13 13 13 13 13 13 13 13 13 13 13 13 13
13 15 15 16 17 17 18 18 18 18 18 17 17 16 16 15 15 14 14 13 13 13 13 12 12 12 12 12 13 13 13 13 13 13 13 13 13 12 13 13 13 13 13
12 13 14 15 15 16 16 16 16 16 16 16 16 16 15 15 14 14 14 13 13 13 12 12 12 12 12 12 12 13 13 13 13 12 12 12 12 12 12 13 13 13 13
11 12 13 13 13 14 14 15 15 15 15 16 16 16 15 15 14 14 13 13 13 13 12 12 12 12 12 12 12 12 12 12 12 12 12 12 12 12 12 12 12 12 12
10 10 11 11 11 12 12 13 13 13 14 14 15 15 15 15 15 14 13 13 13 12 12 12 12 12 12 12 12 12 12 12 12 12 12 12 12 12 12 12 12 12 12
10 9 9 10 10 10 11 11 11 12 12 12 13 14 14 14 14 14 13 13 12 12 12 12 11 11 11 11 11 11 11 11 11 11 11 11 12 12 12 12 12 12 12
9 9 9 9 9 9 10 10 10 10 10 11 11 12 13 14 14 14 13 13 12 12 12 11 11 11 11 11 11 11 11 11 11 11 11 11 11 11 11 12 12 12 12
9 9 9 9 9 9 9 9 9 9 10 10 10 11 11 12 13 13 13 13 12 12 11 11 11 11 11 11 11 11 11 11 11 11 11 11 11 11 11 11 12 12 12
9 9 9 9 9 9 9 9 9 9 9 9 9 10 10 11 11 11 12 12 12 12 11 11 11 11 11 11 10 10 10 10 11 11 11 11 11 11 11 11 11 11 11
9 9 9 9 9 9 9 9 9 9 9 9 9 9 9 9 10 10 11 11 11 11 11 11 11 11 11 10 10 10 11 11 11 11 11 11 11 11 11 11 11 11 11
9 9 9 9 9 9 9 9 9 9 9 9 9 9 8 8 9 9 10 10 11 11 11 11 11 11 11 10 10 10 11 11 11 11 11 11 11 11 11 11 11 11 10
8 8 8 8 8 8 8 8 8 8 9 9 9 8 8 8 8 9 9 10 10 10 11 11 11 11 11 10 10 10 11 11 11 11 10 10 10 10 10 10 11 10 10
8 8 7 7 7 7 7 7 8 8 8 8 8 8 8 8 8 8 8 9 9 10 10 11 11 11 10 10 10 10 11 11 11 10 10 10 10 10 10 10 10 9 9
7 7 7 7 7 7 7 7 7 7 8 8 8 8 8 8 7 7 8 8 8 9 10 10 11 10 10 10 10 10 10 10 10 10 10 10 9 9 9 9 9 9 9
7 6 6 6 6 6 6 6 6 7 7 7 8 8 8 7 7 7 7 7 8 8 9 10 11 10 10 10 10 10 10 10 10 10 9 9 9 9 9 9 8 8 8
6 6 5 5 5 5 5 5 6 6 6 7 7 7 7 7 7 7 7 7 7 8 9 10 11 11 10 11 10 10 10 10 10 10 9 9 9 9 9 8 8 8 7
5 5 4 4 4 4 4 4 5 5 5 6 6 7 7 7 7 6 7 7 7 8 9 10 11 12 12 11 11 11 11 10 10 10 10 9 9 9 9 8 8 8 7
Wind_Speed
4 4 6 8 8 8 9 9 8 7 5 3 2 3 4 4 3 4 5 6 7 7 5 6 7 6 7 8 8 8 8 7 6 5 6 7 9 11 10 9 9 10 11
4 5 6 7 8 9 9 9 8 6 5 3 2 2 2 2 3 3 5 6 7 7 6 7 7 7 7 9 9 8 6 5 5 5 4 4 4 6 8 7 8 8 7
9 8 8 8 8 9 9 7 7 5 5 4 1 1 1 2 3 3 4 4 6 8 7 8 8 8 8 8 9 8 9 8 6 7 6 5 6 3 3 4 5 5 5
8 8 9 9 10 9 6 4 4 4 3 4 3 3 2 3 4 3 4 7 7 8 8 9 9 9 8 9 10 9 8 9 8 6 8 7 5 4 3 2 3 4 5
11 11 11 11 9 6 4 3 3 3 3 4 5 4 4 4 3 4 6 7 7 8 9 9 9 9 8 10 10 9 9 9 9 7 6 7 7 8 6 5 3 2 3
10 11 9 7 6 3 3 4 5 4 4 5 6 6 5 5 4 5 6 6 7 7 9 9 8 9 8 9 10 9 10 9 10 9 7 6 5 6 7 7 4 2 1
7 8 8 8 7 6 6 6 6 6 6 6 6 6 6 5 5 6 6 7 7 7 9 9 9 8 8 9 8 9 9 9 10 9 7 7 6 4 5 5 3 2 1
6 7 8 7 7 7 6 6 7 7 7 7 6 5 5 4 4 5 5 6 6 7 9 9 9 9 8 7 7 6 7 7 8 8 7 6 6 5 5 4 4 3 2
11 10 9 8 7 6 4 4 5 6 6 7 6 6 6 6 6 5 5 5 6 6 8 9 9 8 8 7 6 5 6 6 7 7 7 5 5 5 5 4 4 4 4
14 14 14 13 12 10 9 7 5 5 5 5 6 6 7 7 6 5 6 6 6 6 8 9 9 8 8 7 5 5 5 5 5 5 6 5 4 4 4 4 3 3 3
14 14 14 13 13 13 12 11 9 7 6 6 7 7 7 7 6 6 6 6 5 5 6 8 8 9 8 7 5 5 4 4 3 3 5 5 4 3 3 3 3 3 4
11 11 12 13 15 15 13 12 10 9 8 8 8 9 9 7 8 8 7 6 5 5 6 6 7 8 7 6 4 3 1 1 2 3 3 3 3 4 3 4 5 5 5
12 12 13 14 14 13 13 12 11 10 10 9 8 9 10 10 10 10 8 6 5 5 5 5 6 6 6 5 4 3 3 4 5 4 4 5 5 6 5 7 8 7 7
11 12 12 12 11 11 11 12 12 11 12 11 10 10 12 12 12 10 8 7 5 4 4 3 4 4 4 4 4 5 6 7 7 7 6 6 6 6 8 9 10 9 9
15 14 13 12 12 12 12 12 12 12 12 13 13 12 12 11 11 10 9 7 6 4 3 2 2 2 3 3 4 5 7 8 9 8 7 7 9 10 9 9 9 10 9
16 16 15 14 14 14 14 13 12 12 11 11 13 14 13 11 11 11 9 8 7 5 3 2 1 2 3 6 7 7 7 8 9 9 8 9 12 15 15 14 11 10 10
14 14 14 14 13 14 13 13 13 12 11 11 11 12 13 12 11 11 10 10 9 7 5 4 4 4 5 8 8 9 7 7 7 7 7 8 9 10 11 13 14 12 11
13 14 15 14 14 14 15 13 13 12 12 12 11 11 11 12 11 10 11 11 8 8 7 6 7 7 7 9 10 11 8 8 7 6 7 8 7 6 10 11 10 9 8
14 15 15 16 15 16 16 14 14 13 13 13 12 11 10 11 11 10 12 11 9 9 8 8 9 9 9 11 12 11 7 8 7 6 6 7 7 8 12 12 11 11 9
16 16 16 16 15 16 14 13 14 14 15 14 13 11 10 10 11 11 11 10 10 11 11 10 10 11 11 13 14 12 8 8 7 6 6 7 8 9 11 11 12 11 7
18 18 17 16 15 15 13 14 14 15 16 14 13 12 11 10 10 10 9 10 12 12 12 11 10 11 12 15 16 14 9 9 8 7 5 5 11 13 12 11 9 11 9
18 17 16 17 16 14 14 15 16 17 15 13 13 13 11 10 10 8 9 9 12 14 13 12 10 8 10 14 15 15 13 12 9 8 6 7 12 14 14 11 12 14 10
19 16 16 18 15 14 13 16 17 16 14 13 13 12 11 10 8 8 9 7 10 12 13 13 13 11 9 11 14 15 16 14 8 8 10 12 14 13 11 12 13 10 8
18 17 17 18 17 15 14 15 15 14 13 13 13 12 10 10 8 7 6 5 7 11 13 14 14 12 11 10 10 9 9 11 10 9 11 12 12 10 10 9 7 6 6
17 16 17 19 19 16 15 15 14 12 12 13 12 11 10 10 9 8 6 6 7 10 13 15 15 16 14 15 18 15 11 11 11 12 7 5 5 5 5 5 5 5 4
18 19 19 20 19 17 16 15 14 12 12 11 11 9 8 8 8 8 8 9 11 14 18 17 17 17 19 21 21 20 19 19 19 13 9 8 7 7 7 6 4 4 4
Wind_Direction
145 149 146 145 147 160 174 185 193 196 172 159 182 213 241 251 261 264 269 281 285 286 278 275 275 269 262 261 258 255 254 250 238 242 256 251 239 238 238 239 244 252 257
170 186 179 180 182 188 193 195 199 191 186 179 180 192 218 254 270 287 295 289 289 290 289 276 274 271 268 265 259 249 249 247 216 216 237 266 269 239 235 232 236 244 250
192 203 204 207 208 210 207 202 200 196 198 195 151 83 16 336 315 305 300 295 298 292 284 279 274 272 265 264 258 247 244 249 236 211 211 221 235 257 256 236 234 233 238
208 214 216 220 223 227 220 209 201 195 194 178 183 195 220 260 264 276 284 296 296 295 292 284 279 274 268 262 259 250 240 241 245 229 220 223 213 219 249 248 237 238 244
215 218 220 224 231 234 224 209 193 194 181 176 182 187 212 232 264 283 292 298 301 299 297 294 289 281 273 265 259 254 244 238 239 232 221 228 230 227 228 245 237 236 249
226 232 238 242 251 244 220 200 192 197 182 182 181 185 206 233 272 294 302 306 307 304 302 304 297 290 281 272 264 257 249 243 241 237 226 218 213 212 216 225 228 225 242
248 258 266 266 261 248 229 209 197 202 195 192 192 196 206 221 247 273 289 302 307 308 308 310 304 298 287 278 269 260 252 243 239 236 230 223 218 199 195 203 205 198 174
331 320 313 304 289 269 245 221 209 211 204 204 207 206 210 219 239 254 267 282 290 295 301 307 305 301 295 286 273 263 255 245 237 231 224 219 213 203 194 185 174 171 165
6 358 352 347 338 328 307 264 236 234 225 219 214 218 222 227 241 255 261 273 284 298 309 312 311 309 304 296 280 263 257 246 235 225 216 211 207 201 197 185 175 167 164
26 22 18 13 10 7 2 357 333 289 269 248 235 235 233 234 240 250 264 274 289 303 318 323 320 315 312 306 293 274 261 243 230 215 204 198 188 183 180 177 172 159 144
25 22 20 17 17 17 15 8 355 335 313 286 263 252 248 243 243 247 256 265 281 300 316 320 321 320 320 318 309 288 265 237 218 200 189 180 172 164 161 153 140 130 122
15 13 12 13 14 13 8 3 354 342 323 300 277 260 253 246 244 247 251 256 272 291 306 316 321 325 329 332 332 336 359 119 120 128 136 142 134 121 116 114 109 107 111
7 6 6 6 2 358 355 352 349 340 330 314 289 270 255 244 242 243 245 247 259 284 304 317 325 328 338 353 11 32 57 83 85 84 87 91 102 103 104 104 106 106 107
357 355 354 351 347 343 341 339 340 340 336 328 309 284 266 249 241 236 234 236 241 261 288 306 319 338 12 32 43 61 66 72 72 70 72 76 91 109 112 111 112 112 107
348 346 341 337 335 334 332 330 331 333 335 332 326 308 286 261 245 233 226 225 225 232 251 282 330 30 52 71 80 82 84 81 80 72 69 81 101 104 107 118 119 117 112
334 332 328 324 322 321 319 318 319 319 322 326 329 327 312 282 253 237 223 214 214 214 211 212 141 101 106 114 104 102 94 91 93 90 82 84 88 92 90 92 98 112 120
309 309 307 303 301 300 302 301 301 305 309 310 316 326 326 308 277 247 223 212 207 198 192 182 154 137 139 138 123 110 103 99 98 99 96 94 89 91 97 87 79 76 89
293 298 298 296 293 293 292 290 290 292 295 299 303 311 320 320 303 263 232 216 200 194 188 180 166 155 158 150 132 116 105 98 88 89 102 108 101 105 110 101 87 77 70
286 290 289 288 287 286 286 286 285 285 286 287 290 297 305 313 313 289 249 222 201 193 187 179 171 167 168 163 148 132 117 104 87 76 83 105 105 115 119 111 105 93 81
293 293 292 289 286 283 281 278 279 279 278 278 278 282 288 297 305 304 272 228 206 198 186 180 179 175 173 173 161 145 133 119 107 85 74 84 105 115 121 121 120 113 108
290 290 291 290 286 285 282 277 276 273 271 271 272 276 277 284 293 305 292 238 210 196 185 180 179 179 174 173 169 160 146 139 131 122 106 94 103 103 102 106 113 122 120
284 283 283 284 285 284 281 280 278 275 272 269 268 269 271 279 294 304 305 261 218 197 186 177 173 177 173 171 177 169 151 145 140 138 130 116 108 102 99 100 109 110 107
284 281 277 280 279 274 270 273 276 276 273 270 268 267 269 269 273 286 305 288 232 202 187 181 179 178 175 177 176 169 154 146 133 138 136 125 112 101 97 102 105 103 105
284 282 279 279 279 273 268 266 270 271 266 264 266 265 265 266 267 271 286 290 259 213 188 184 181 177 175 174 171 166 153 140 127 128 125 112 104 99 98 92 87 88 100
287 283 281 281 278 273 268 268 268 264 260 259 261 262 259 258 262 264 268 275 267 239 199 189 181 177 181 183 172 166 165 160 152 141 129 124 124 119 112 102 96 97 102
292 289 286 283 281 276 270 264 261 258 256 259 259 256 252 252 253 262 281 270 262 249 221 200 183 183 179 167 167 168 164 156 150 146 153 155 155 155 153 144 132 124 118
Height
1505 1507 1509 1510 1511 1513 1514 1515 1516 1517 1517 1517 1518 1517 1517 1516 1515 1513 1511 1509 1506 1504 1502 1500 1498 1497 1495 1494 1494 1494 1493 1493 1494 1495 1494 1494 1495 1494 1495 1496 1497 1497 1498
1505 1507 1508 1509 1510 1511 1512 1513 1514 1515 1516 1516 1516 1515 1514 1512 1511 1509 1506 1504 1501 1498 1496 1493 1491 1490 1488 1487 1487 1487 1486 1485 1487 1488 1488 1487 1487 1486 1488 1488 1489 1490 1490
1504 1505 1506 1507 1508 1509 1510 1511 1512 1513 1514 1514 1513 1512 1510 1508 1506 1504 1501 1499 1496 1492 1489 1487 1484 1483 1481 1479 1479 1479 1479 1478 1479 1480 1482 1481 1479 1480 1480 1480 1482 1483 1483
1502 1503 1504 1505 1506 1507 1509 1509 1510 1511 1511 1511 1510 1508 1506 1504 1502 1498 1495 1493 1489 1486 1483 1480 1477 1475 1473 1472 1471 1471 1471 1471 1471 1473 1473 1474 1475 1476 1474 1474 1475 1476 1476
1500 1501 1502 1503 1504 1505 1506 1507 1507 1508 1508 1507 1506 1504 1502 1499 1497 1494 1490 1487 1484 1480 1477 1473 1470 1467 1466 1464 1463 1463 1463 1464 1464 1465 1465 1466 1467 1468 1469 1468 1469 1470 1470
1498 1499 1500 1501 1502 1503 1504 1504 1504 1504 1504 1503 1502 1500 1497 1495 1492 1489 1485 1481 1478 1474 1471 1467 1464 1461 1459 1457 1456 1456 1456 1456 1457 1457 1458 1459 1459 1460 1461 1463 1463 1465 1466
1497 1497 1498 1498 1499 1500 1500 1501 1501 1501 1500 1499 1498 1495 1493 1490 1487 1484 1480 1476 1472 1469 1465 1462 1458 1456 1454 1452 1451 1450 1450 1450 1450 1450 1451 1452 1453 1454 1456 1458 1459 1460 1462
1496 1496 1496 1496 1496 1496 1497 1497 1497 1497 1496 1495 1494 1491 1489 1486 1483 1480 1476 1472 1469 1465 1461 1458 1455 1452 1449 1448 1446 1446 1445 1445 1445 1445 1445 1446 1447 1449 1450 1453 1455 1456 1458
1495 1495 1493 1493 1493 1493 1493 1493 1493 1493 1493 1492 1490 1487 1485 1482 1479 1476 1473 1469 1466 1462 1459 1455 1452 1449 1447 1444 1443 1441 1440 1440 1440 1440 1440 1441 1443 1444 1446 1448 1450 1453 1454
1496 1494 1492 1490 1490 1489 1489 1489 1489 1489 1488 1487 1486 1483 1481 1479 1476 1473 1470 1466 1463 1460 1457 1454 1450 1447 1444 1442 1440 1438 1436 1436 1435 1435 1436 1437 1439 1440 1442 1444 1446 1448 1451
1498 1496 1494 1492 1490 1488 1487 1486 1486 1485 1484 1483 1481 1479 1477 1475 1473 1470 1467 1463 1460 1457 1454 1452 1449 1445 1442 1440 1437 1435 1433 1432 1432 1432 1433 1434 1435 1437 1439 1441 1443 1445 1448
1502 1499 1496 1492 1489 1488 1486 1485 1483 1481 1480 1478 1476 1474 1472 1471 1469 1466 1463 1460 1458 1455 1452 1450 1447 1444 1441 1438 1435 1433 1432 1431 1430 1430 1431 1432 1434 1435 1437 1439 1442 1444 1447
1502 1499 1495 1492 1490 1487 1485 1483 1480 1477 1475 1472 1470 1468 1466 1465 1464 1462 1460 1457 1454 1452 1450 1447 1445 1443 1439 1437 1434 1432 1431 1430 1430 1430 1431 1432 1433 1435 1437 1439 1442 1445 1449
1503 1499 1496 1492 1490 1487 1483 1480 1476 1473 1470 1467 1464 1461 1459 1458 1457 1457 1455 1453 1451 1449 1447 1445 1443 1441 1439 1436 1434 1433 1431 1431 1431 1431 1432 1433 1434 1436 1439 1441 1444 1448 1452
1502 1498 1495 1491 1487 1483 1480 1476 1472 1469 1465 1462 1458 1454 1451 1450 1450 1450 1450 1449 1447 1446 1444 1443 1441 1440 1438 1437 1435 1434 1433 1432 1432 1433 1434 1436 1437 1439 1442 1445 1448 1451 1454
1499 1496 1492 1489 1485 1481 1477 1473 1469 1465 1461 1457 1453 1448 1444 1442 1441 1443 1444 1443 1442 1442 1441 1441 1440 1439 1438 1437 1436 1435 1434 1435 1435 1436 1438 1439 1441 1443 1446 1449 1452 1454 1456
1497 1493 1490 1486 1482 1478 1474 1470 1465 1461 1457 1453 1448 1444 1439 1435 1433 1434 1436 1437 1437 1437 1437 1437 1437 1437 1437 1437 1437 1437 1437 1438 1439 1441 1442 1443 1445 1447 1449 1452 1455 1457 1459
1494 1490 1485 1481 1477 1473 1468 1464 1460 1456 1452 1447 1443 1439 1435 1430 1427 1426 1428 1430 1431 1432 1433 1434 1435 1435 1436 1437 1438 1438 1439 1441 1443 1445 1446 1447 1449 1451 1453 1454 1456 1459 1461
1489 1484 1478 1473 1468 1464 1460 1456 1452 1449 1445 1441 1437 1434 1430 1425 1422 1419 1419 1421 1424 1426 1427 1429 1431 1433 1435 1437 1438 1440 1441 1443 1445 1447 1448 1450 1451 1452 1454 1455 1457 1459 1461
1481 1476 1470 1465 1459 1455 1452 1447 1443 1440 1437 1434 1431 1427 1424 1420 1416 1413 1412 1412 1415 1419 1422 1424 1427 1430 1432 1435 1438 1440 1442 1444 1446 1447 1449 1450 1451 1453 1454 1456 1458 1459 1462
1473 1468 1462 1455 1450 1446 1442 1437 1433 1430 1428 1425 1423 1420 1417 1414 1410 1407 1404 1403 1405 1410 1415 1418 1422 1426 1429 1433 1436 1439 1442 1444 1446 1448 1449 1451 1452 1454 1455 1457 1459 1460 1462
1463 1458 1452 1445 1441 1437 1432 1427 1423 1420 1418 1416 1413 1411 1409 1407 1404 1400 1397 1395 1396 1400 1406 1411 1416 1421 1426 1430 1434 1438 1441 1444 1446 1448 1450 1451 1453 1455 1456 1458 1460 1461 1464
1451 1446 1440 1433 1429 1426 1422 1417 1413 1411 1408 1406 1404 1403 1401 1399 1397 1394 1391 1389 1387 1389 1397 1403 1409 1415 1421 1426 1431 1436 1440 1443 1446 1448 1450 1452 1454 1456 1458 1459 1461 1463 1464
1440 1434 1428 1421 1416 1413 1410 1406 1403 1401 1398 1396 1395 1394 1393 1391 1390 1388 1385 1383 1380 1382 1387 1395 1401 1408 1415 1421 1427 1432 1437 1441 1445 1448 1450 1453 1455 1457 1459 1460 1462 1463 1465
1427 1421 1415 1408 1403 1400 1397 1394 1392 1390 1388 1387 1386 1386 1385 1384 1382 1381 1379 1376 1374 1375 1380 1387 1394 1401 1408 1415 1422 1427 1433 1438 1442 1446 1449 1452 1455 1458 1460 1461 1463 1464 1465
1414 1407 1401 1395 1389 1386 1382 1380 1379 1379 1377 1376 1376 1377 1377 1376 1375 1373 1372 1369 1368 1369 1374 1382 1389 1396 1403 1411 1418 1425 1431 1436 1440 1444 1447 1451 1454 1457 1459 1461 1463 1465 1466